TimeCDT,TemperatureF,Dew PointF,Humidity,Sea Level PressureIn,VisibilityMPH,Wind Direction,Wind SpeedMPH,Gust SpeedMPH,PrecipitationIn,Events,Conditions,WindDirDegrees,DateUTC
12:53 AM,48.0,45.0,89,30.14,10.0,Calm,Calm,-,N/A,,Clear,0,2013-04-22 05:53:00
1:53 AM,46.9,45.0,93,30.14,10.0,Calm,Calm,-,N/A,,Clear,0,2013-04-22 06:53:00
2:53 AM,46.0,43.0,89,30.12,10.0,Calm,Calm,-,N/A,,Clear,0,2013-04-22 07:53:00
3:53 AM,46.0,43.0,89,30.12,9.0,Calm,Calm,-,N/A,,Clear,0,2013-04-22 08:53:00
4:53 AM,45.0,43.0,93,30.12,10.0,Calm,Calm,-,N/A,,Clear,0,2013-04-22 09:53:00
5:53 AM,44.1,42.1,93,30.12,9.0,Calm,Calm,-,N/A,,Clear,0,2013-04-22 10:53:00
6:53 AM,44.1,42.1,93,30.12,10.0,Calm,Calm,-,N/A,,Clear,0,2013-04-22 11:53:00
7:53 AM,50.0,46.9,89,30.14,10.0,Calm,Calm,-,N/A,,Clear,0,2013-04-22 12:53:00
8:53 AM,61.0,53.1,75,30.14,10.0,Calm,Calm,-,N/A,,Clear,0,2013-04-22 13:53:00
9:53 AM,69.1,53.1,57,30.15,10.0,Calm,Calm,-,N/A,,Clear,0,2013-04-22 14:53:00
10:53 AM,73.9,50.0,43,30.14,10.0,Variable,5.8,-,N/A,,Clear,0,2013-04-22 15:53:00
11:53 AM,77.0,46.9,34,30.13,10.0,Variable,5.8,-,N/A,,Clear,0,2013-04-22 16:53:00
12:53 PM,77.0,46.0,33,30.11,10.0,ENE,5.8,-,N/A,,Clear,70,2013-04-22 17:53:00
1:53 PM,77.0,44.1,31,30.07,10.0,SSE,3.5,-,N/A,,Clear,150,2013-04-22 18:53:00
2:53 PM,80.1,45.0,29,30.05,10.0,Variable,3.5,-,N/A,,Clear,0,2013-04-22 19:53:00
3:53 PM,80.1,45.0,29,30.01,10.0,Variable,4.6,-,N/A,,Clear,0,2013-04-22 20:53:00
4:53 PM,79.0,48.0,34,30.01,10.0,SSE,6.9,-,N/A,,Clear,150,2013-04-22 21:53:00
5:53 PM,78.1,46.9,33,30.00,10.0,SSE,8.1,-,N/A,,Clear,160,2013-04-22 22:53:00
6:53 PM,75.9,46.9,36,29.99,10.0,Calm,Calm,-,N/A,,Clear,0,2013-04-22 23:53:00
7:53 PM,64.9,53.1,65,29.98,10.0,Calm,Calm,-,N/A,,Clear,0,2013-04-23 00:53:00
8:53 PM,60.1,54.0,80,30.00,10.0,Calm,Calm,-,N/A,,Clear,0,2013-04-23 01:53:00
9:53 PM,57.0,51.1,81,30.01,10.0,Calm,Calm,-,N/A,,Clear,0,2013-04-23 02:53:00
10:53 PM,55.9,52.0,87,30.01,10.0,Calm,Calm,-,N/A,,Clear,0,2013-04-23 03:53:00
11:53 PM,54.0,51.1,90,30.02,10.0,Calm,Calm,-,N/A,,Clear,0,2013-04-23 04:53:00